Location: El Bakhil
(32.7726°N, 5.5387°W)
Time: 05:05:41
(UTC+00:00)

Envisat - Pass Details

Date: 09 December 2021
Orbit: 764 x 766 km, 98.2° (Epoch: 25 January)

Event Time Altitude Azimuth Distance (km) Brightness Sun altitude
Rises 04:10:20 0° 33° (NNE) 3,234 6.6 -37.6°
Reaches altitude 10° 04:13:26 10° 53° (NE) 2,303 5.9 -36.9°
Maximum altitude 04:16:45 17° 94° (E) 1,836 5.6 -36.2°
Drops below altitude 10° 04:20:03 10° 135° (SE) 2,293 6.0 -35.5°
Sets 04:23:06 0° 155° (SSE) 3,214 6.6 -34.9°
